This demonstration page uses our WeatherBlox Daily Observations layout. Learn more.

Left ArrowRight Arrow

Hourly Observations for November 23, 2016

Temp ( °F °C ) Dew Point ( °F °C ) Humidity (%) Winds ( mph kmh ) Pressure ( in mb ) Visibility ( mi km ) Precip ( " mm )
12:59 am 00:59 Clear 42 5.6 24 -4.4 49 49 N 6 9 30.32 1027 10 16 0.00 0.00
1:59 am 01:59 Clear 41 5 26 -3.3 55 55 N 7 11 30.33 1027 10 16 0.00 0.00
2:59 am 02:59 Clear 41 5 29 -1.7 62 62 NNW 7 11 30.33 1027 10 16 0.00 0.00
3:59 am 03:59 Clear 38 3.3 30 -1.1 73 73 NNW 7 11 30.33 1027 10 16 0.00 0.00
4:59 am 04:59 Clear 37 2.8 30 -1.1 76 76 Calm 30.35 1028 10 16 0.00 0.00
5:59 am 05:59 Partly Cloudy 37 2.8 30 -1.1 76 76 N 3 6 30.36 1028 10 16 0.00 0.00
6:59 am 06:59 Partly Cloudy 36 2.2 30 -1.1 79 79 Calm 30.37 1029 10 16 0.00 0.00
7:59 am 07:59 Partly Cloudy 41 5 35 1.7 79 79 Calm 30.38 1029 10 16 0.00 0.00
8:59 am 08:59 Mostly Sunny 47 8.3 34 1.1 61 61 E 8 13 30.38 1029 10 16 0.00 0.00
9:59 am 09:59 Mostly Sunny 49 9.4 32 0 52 52 VRB 5 7 30.39 1029 10 16 0.00 0.00
10:59 am 10:59 Mostly Sunny 51 10.6 32 0 48 48 NE 7 11 30.37 1029 10 16 0.00 0.00
11:59 am 11:59 Mostly Sunny 51 10.6 32 0 48 48 E 3 6 30.35 1028 10 16 0.00 0.00
12:59 pm 12:59 Mostly Sunny 53 11.7 33 0.6 47 47 NE 6 9 30.33 1027 10 16 0.00 0.00
1:59 pm 13:59 Mostly Sunny 54 12.2 31 -0.6 42 42 NE 7 11 30.32 1027 10 16 0.00 0.00
2:59 pm 14:59 Partly Cloudy 53 11.7 30 -1.1 41 41 ENE 6 9 30.30 1026 10 16 0.00 0.00
3:59 pm 15:59 Mostly Sunny 49 9.4 28 -2.2 44 44 E 7 11 30.30 1026 10 16 0.00 0.00
4:59 pm 16:59 Mostly Cloudy 47 8.3 31 -0.6 54 54 ESE 5 7 30.31 1026 10 16 0.00 0.00
5:59 pm 17:59 Mostly Cloudy 48 8.9 32 0 54 54 SE 5 7 30.32 1027 10 16 0.00 0.00
6:59 pm 18:59 Mostly Cloudy 48 8.9 34 1.1 58 58 SE 7 11 30.30 1026 10 16 0.00 0.00
7:59 pm 19:59 Mostly Cloudy 47 8.3 33 0.6 59 59 SSE 5 7 30.30 1026 10 16 0.00 0.00
8:59 pm 20:59 Mostly Cloudy 46 7.8 35 1.7 66 66 S 5 7 30.31 1026 10 16 0.00 0.00
9:59 pm 21:59 Mostly Cloudy 45 7.2 36 2.2 71 71 S 5 7 30.30 1026 10 16 0.00 0.00
10:59 pm 22:59 Mostly Cloudy 45 7.2 37 2.8 74 74 S 6 9 30.30 1026 10 16 0.00 0.00
11:59 pm 23:59 Partly Cloudy 43 6.1 37 2.8 80 80 S 6 9 30.29 1026 10 16 0.00 0.00

Powered by AerisWeather